Tremblant, Canada 16 day weather forecast

Slopes altitude range 230 m - 875m

Number of lifts: 14 Pistes: 79km

In some cases the lift and piste totals shown are for the ski domain (e.g. Three Valleys) rather than individual resort (e.g. Courchevel)

Overview

The 16 day weather forecast is fully updated 4 times every day.

    • Thu 21 FEB 2019
    • Thu 21
    • -10C 0C
    • Fri 22 FEB 2019
    • Fri 22
    • -12C -10C
    • Sat 23 FEB 2019
    • Sat 23
    • -11C -8C
    • Sun 24 FEB 2019
    • Sun 24
    • -4C -3C
    • Mon 25 FEB 2019
    • Mon 25
    • -10C -1C
    • Tue 26 FEB 2019
    • Tue 26
    • -27C -23C
    • Wed 27 FEB 2019
    • Wed 27
    • -22C -20C
    • Thu 28 FEB 2019
    • Thu 28
    • -20C -19C
    • Fri 01 MAR 2019
    • Fri 01
    • -17C -16C
    • Sat 02 MAR 2019
    • Sat 02
    • -10C -6C
    • Sun 03 MAR 2019
    • Sun 03
    • -17C -12C
    • Mon 04 MAR 2019
    • Mon 04
    • -25C -17C
    • Tue 05 MAR 2019
    • Tue 05
    • -24C -18C
    • Wed 06 MAR 2019
    • Wed 06
    • -18C -16C
    • Thu 07 MAR 2019
    • Thu 07
    • -19C -10C
    • Fri 08 MAR 2019
    • Fri 08
    • -14C -10C

Date:

Time Type 0°C level Temp Chill Snow Cloud Speed Gust Dir Press
18:00 387m 0°C 0_13 1cm 100% 13mph 29mph 1007mB
21:00 379m 0°C 0_14 1cm 100% 14mph 29mph 1009mB
0:00 60m -2°C -2_11 1cm 98% 11mph 25mph 1012mB
3:00 0m -6°C -6_7 1cm 66% 7mph 27mph 1017mB
6:00 0m -10°C -10_5 1cm 34% 5mph 13mph 1021mB
9:00 0m -11°C -11_4 0cm 3% 4mph 9mph 1024mB
12:00 0m -10°C -10_6 0cm 11% 6mph 23mph 1028mB
15:00 0m -7°C -7_8 0cm 17% 8mph 17mph 1030mB
18:00 0m -5°C -5_8 0cm 8% 8mph 14mph 1030mB
21:00 0m -5°C -5_8 0cm 9% 8mph 15mph 1030mB
0:00 0m -9°C -9_4 0cm 19% 4mph 5mph 1032mB
3:00 0m -9°C -9_4 0cm 30% 4mph 5mph 1034mB
6:00 0m -9°C -9_3 0cm 35% 3mph 4mph 1034mB
9:00 0m -11°C -11_2 0cm 36% 2mph 2mph 1033mB
12:00 0m -8°C -8_2 0cm 65% 2mph 2mph 1033mB
15:00 0m -3°C -3_5 0cm 49% 5mph 9mph 1032mB
18:00 24m -2°C -2_6 0cm 73% 6mph 10mph 1030mB
21:00 119m -2°C -2_3 0cm 94% 3mph 4mph 1027mB
0:00 0m -5°C -5_4 0cm 94% 4mph 4mph 1026mB
3:00 0m -5°C -5_6 0cm 100% 6mph 17mph 1023mB
6:00 0m -5°C -5_11 0cm 100% 11mph 26mph 1018mB
9:00 0m -4°C -4_15 1cm 100% 15mph 34mph 1012mB
12:00 0m -3°C -3_16 3cm 100% 16mph 36mph 1003mB
15:00 328m 0°C 0_17 10cm 100% 17mph 35mph 994mB
18:00 1832m 2°C 2_15 0cm 100% 15mph 31mph 988mB
21:00 1171m 2°C 2_5 0cm 100% 5mph 33mph 983mB
0:00 684m 2°C 2_15 0cm 100% 15mph 34mph 982mB
3:00 427m 0°C 0_15 2cm 100% 15mph 34mph 981mB
6:00 218m -1°C -1_14 3cm 100% 14mph 30mph 980mB
9:00 166m -1°C -1_17 2cm 100% 17mph 33mph 984mB
12:00 0m -1°C -1_21 2cm 100% 21mph 38mph 994mB
15:00 0m -10°C -10_20 1cm 100% 20mph 37mph 1003mB
18:00 0m -10°C -10_21 1cm 100% 21mph 37mph 1009mB
21:00 0m -16°C -16_19 1cm 100% 19mph 36mph 1015mB
0:00 0m -19°C -19_17 0cm 100% 17mph 37mph 1021mB
3:00 0m -22°C -22_13 0cm 41% 13mph 32mph 1026mB
6:00 0m -23°C -23_10 0cm 47% 10mph 28mph 1029mB
9:00 0m -25°C -25_9 0cm 11% 9mph 26mph 1032mB
12:00 0m -23°C -23_5 0cm 7% 5mph 19mph 1034mB
15:00 0m -21°C -21_8 0cm 1% 8mph 16mph 1034mB
18:00 0m -17°C -17_9 0cm 3% 9mph 17mph 1032mB
21:00 0m -17°C -17_9 0cm 80% 9mph 16mph 1031mB
0:00 0m -20°C -20_3 0cm 74% 3mph 4mph 1033mB
3:00 0m -22°C -22_2 0cm 77% 2mph 2mph 1033mB
6:00 0m -22°C -22_2 0cm 89% 2mph 3mph 1032mB
9:00 0m -21°C -21_2 0cm 97% 2mph 3mph 1031mB
12:00 0m -20°C -20_3 0cm 93% 3mph 3mph 1031mB
15:00 0m -15°C -15_3 0cm 83% 3mph 5mph 1029mB
18:00 0m -12°C -12_3 0cm 83% 3mph 5mph 1026mB
21:00 0m -12°C -12_3 0cm 99% 3mph 3mph 1024mB
0:00 0m -17°C -17_2 0cm 91% 2mph 3mph 1025mB
3:00 0m -19°C -19_2 0cm 8% 2mph 3mph 1025mB
6:00 0m -19°C -19_3 0cm 4% 3mph 4mph 1026mB
9:00 0m -20°C -20_3 0cm 0% 3mph 4mph 1026mB
12:00 0m -19°C -19_3 0cm 0% 3mph 3mph 1028mB
15:00 0m -11°C -11_1 0cm 0% 1mph 1mph 1027mB
18:00 0m -8°C -8_4 0cm 8% 4mph 6mph 1026mB
21:00 0m -9°C -9_5 0cm 89% 5mph 8mph 1025mB
0:00 0m -12°C -12_3 0cm 91% 3mph 4mph 1027mB
3:00 0m -15°C -15_4 0cm 1% 4mph 5mph 1028mB
6:00 0m -16°C -16_4 0cm 0% 4mph 5mph 1028mB
9:00 0m -16°C -16_4 0cm 0% 4mph 4mph 1029mB
12:00 0m -16°C -16_4 0cm 0% 4mph 4mph 1030mB
15:00 0m -7°C -7_2 0cm 0% 2mph 4mph 1029mB
18:00 0m -5°C -5_3 0cm 38% 3mph 4mph 1028mB
21:00 0m -6°C -6_4 1cm 100% 4mph 6mph 1026mB
0:00 0m -9°C -9_3 0cm 100% 3mph 5mph 1025mB
3:00 0m -10°C -10_8 0cm 100% 8mph 21mph 1020mB
6:00 0m -10°C -10_15 2cm 100% 15mph 31mph 1014mB
9:00 0m -10°C -10_14 5cm 100% 14mph 30mph 1006mB
12:00 0m -6°C -6_14 10cm 100% 14mph 28mph 1001mB
15:00 0m -3°C -3_4 4cm 100% 4mph 9mph 1000mB
18:00 0m -2°C -2_16 4cm 98% 16mph 26mph 1001mB
21:00 0m -4°C -4_15 1cm 85% 15mph 28mph 1003mB
0:00 0m -6°C -6_11 1cm 82% 11mph 28mph 1005mB
3:00 0m -9°C -9_13 0cm 27% 13mph 30mph 1008mB
6:00 0m -12°C -12_16 0cm 28% 16mph 35mph 1011mB
9:00 0m -15°C -15_17 0cm 20% 17mph 37mph 1014mB
12:00 0m -12°C -12_17 0cm 16% 17mph 38mph 1017mB
Morning 0.0104167mm 0 0m -17°C -17_10 0cm 48% 10mph 26mph 1020mB
Afternoon 0mm 0 0m -17°C -17_7 0cm 16% 7mph 23mph 1023mB
Morning 0.0208333mm 0.0625 0m -25°C -25_8 0cm 55% 8mph 24mph 1021mB
Afternoon 0mm 0 0m -18°C -18_9 0cm 29% 9mph 26mph 1020mB
Morning 0.0208333mm 0 0m -24°C -24_13 1cm 93% 13mph 30mph 1019mB
Afternoon 0.0104167mm 0 0m -16°C -16_8 0cm 67% 8mph 24mph 1027mB
Morning 0.015625mm 0 0m -18°C -18_6 0cm 58% 6mph 13mph 1030mB
Afternoon 0mm 0 0m -10°C -10_4 0cm 4% 4mph 5mph 1034mB
Morning 0.00520833mm 0 0m -18°C -18_5 0cm 48% 5mph 10mph 1029mB
Afternoon 0.00520833mm 0 0m -10°C -10_4 0cm 74% 4mph 10mph 1029mB
Morning 0.00520833mm 0 0m -11°C -11_4 0cm 47% 4mph 5mph 1028mB
Afternoon 0mm 0 0m -7°C -7_4 0cm 62% 4mph 8mph 1027mB

16 day outlook at a glance

Forecast issued: 21/02/2019 17:41:53

Chat

Your comments and questions. In a resort? Let us know what it's like!


Characters left 250

For terms and conditions see Readers Comments on the Cookie and privacy policy page.